Swinomish — WC5223 — position and weather

sailwx.info

Track history (hours):
 
Tides and Currents Weather Stations Pressure Air Temp Water Temp Dewpoint Dewpoint Depression Visibility Wind Speed Wind Dir Waves Ship Positions

Swinomish

Owner: DUNLAP TOWING CO, LA CONNER, WA. More information available from US FCC via Universal Licensing System and Coast Guard Vessel Documentation Center.

Last reported at 2014-Oct-31 08:34 UTC. Time now 2014-Oct-31 08:36 UTC.
Position N 47°17' W 122°25'.

Length 15 m; draft 3.5 m.

Type: Tug. MMSI: 366972050.

Date/timePositionNaut miles runAvg speedWind from/ knotsBaromVisibWave heightAir tempDewpointWater temp
2014-Oct-31 08:34N 47°17' W 122°25'0 0.3
2014-Oct-31 07:34N 47°17' W 122°25'0 0.0
2014-Oct-31 06:34N 47°17' W 122°25'0 0.0
2014-Oct-31 05:34N 47°17' W 122°25'0 0.0
2014-Oct-31 04:34N 47°17' W 122°25'0 0.0
2014-Oct-31 03:33N 47°17' W 122°25'0 0.0
2014-Oct-31 02:33N 47°17' W 122°25'0 0.2
2014-Oct-31 01:33N 47°17' W 122°25'0 0.4
2014-Oct-31 00:34N 47°17' W 122°26'2 1.5
2014-Oct-30 23:34N 47°19' W 122°27'2 1.6
2014-Oct-30 22:34N 47°20' W 122°25'1 1.4
2014-Oct-30 21:34N 47°21' W 122°23'2 1.6
2014-Oct-30 20:34N 47°22' W 122°22'2 1.5
2014-Oct-30 19:34N 47°24' W 122°22'2 1.8
2014-Oct-30 18:34N 47°25' W 122°24'2 1.8
2014-Oct-30 17:34N 47°26' W 122°25'2 1.7
2014-Oct-30 16:34N 47°28' W 122°26'2 1.7
2014-Oct-30 15:34N 47°30' W 122°27'2 1.6
2014-Oct-30 14:34N 47°31' W 122°27'2 2.0
2014-Oct-30 13:34N 47°33' W 122°28'2 2.2
2014-Oct-30 12:34N 47°35' W 122°28'2 1.9
2014-Oct-30 11:34N 47°37' W 122°29'1 1.4
2014-Oct-30 10:34N 47°39' W 122°29'1 1.0
2014-Oct-30 09:34N 47°40' W 122°29'1 0.8
2014-Oct-30 08:34N 47°40' W 122°29'1 1.4
2014-Oct-30 07:34N 47°40' W 122°27'1 0.9
2014-Oct-30 06:34N 47°41' W 122°26'1 1.4
2014-Oct-30 05:34N 47°42' W 122°25'2 1.5
2014-Oct-30 04:34N 47°44' W 122°24'2 1.6
2014-Oct-30 03:34N 47°45' W 122°24'1 1.4
2014-Oct-30 02:34N 47°47' W 122°25'1 1.2
2014-Oct-30 01:34N 47°48' W 122°24'1 1.2
2014-Oct-30 00:33N 47°49' W 122°24'1 1.3
2014-Oct-29 23:34N 47°50' W 122°23'1 1.4
2014-Oct-29 22:34N 47°51' W 122°22'1 1.4
2014-Oct-29 21:34N 47°52' W 122°21'2 1.7
2014-Oct-29 20:34N 47°54' W 122°21'2 1.6
2014-Oct-29 19:34N 47°56' W 122°20'1 1.5
2014-Oct-29 18:34N 47°57' W 122°19'1 0.9
2014-Oct-29 17:34N 47°58' W 122°18'1 1.2
2014-Oct-29 16:34N 47°58' W 122°17'0 0.4
2014-Oct-29 15:34N 47°58' W 122°17'0 0.3
2014-Oct-29 14:34N 47°58' W 122°18'0 0.3
2014-Oct-29 13:34N 47°58' W 122°17'0 0.4
2014-Oct-29 12:34N 47°58' W 122°17'1 0.6
2014-Oct-29 11:34N 47°58' W 122°16'0 0.5
2014-Oct-29 10:34N 47°58' W 122°15'0 0.3
2014-Oct-29 09:34N 47°58' W 122°15'1 1.2
2014-Oct-29 08:34N 47°58' W 122°17'1 0.5
2014-Oct-29 07:33N 47°58' W 122°16'2 1.6
2014-Oct-29 06:34N 47°59' W 122°14'1 0.7
2014-Oct-29 05:34N 47°59' W 122°13'0 0.2
2014-Oct-29 04:34N 47°59' W 122°13'0 0.0
2014-Oct-29 03:34N 47°59' W 122°13'0 0.0
2014-Oct-29 02:34N 47°59' W 122°13'0 0.0
2014-Oct-29 01:34N 47°59' W 122°13'1 1.4
2014-Oct-29 00:34N 47°59' W 122°15'8 7.9
2014-Oct-28 23:34N 47°53' W 122°23'8 7.8
2014-Oct-28 22:31N 47°56' W 122°34'7 1.6
2014-Oct-28 18:13N 48°02' W 122°39'6 8.5
2014-Oct-28 17:34N 47°57' W 122°36'7 7.2
2014-Oct-28 16:34N 47°53' W 122°27'6 6.3
2014-Oct-28 15:34N 47°56' W 122°20'5 5.4
2014-Oct-28 14:34N 47°60' W 122°14'1 0.8
2014-Oct-28 13:34N 47°59' W 122°13'0 0.0
2014-Oct-28 12:34N 47°59' W 122°13'0 0.0
2014-Oct-28 11:33N 47°59' W 122°13'0 0.0
2014-Oct-28 10:33N 47°59' W 122°13'0 0.0
2014-Oct-28 09:34N 47°59' W 122°13'0 0.0
2014-Oct-28 08:33N 47°59' W 122°13'0 0.0
2014-Oct-28 07:34N 47°59' W 122°13'0 0.0
2014-Oct-28 06:33N 47°59' W 122°13'0 0.0
2014-Oct-28 05:33N 47°59' W 122°13'0 0.0
2014-Oct-28 04:34N 47°59' W 122°13'0 0.0
2014-Oct-28 03:33N 47°59' W 122°13'0 0.0
2014-Oct-28 02:31N 47°59' W 122°13'0 0.0
2014-Oct-28 01:34N 47°59' W 122°13'0 0.0
2014-Oct-28 00:33N 47°59' W 122°13'0 0.0
2014-Oct-27 23:33N 47°59' W 122°13'0 0.0
2014-Oct-27 22:33N 47°59' W 122°13'0 0.0
2014-Oct-27 21:34N 47°59' W 122°13'0 0.0
2014-Oct-27 20:33N 47°59' W 122°13'0 0.0
2014-Oct-27 19:33N 47°59' W 122°13'0 0.2
2014-Oct-27 18:34N 47°59' W 122°13'0 0.1
2014-Oct-27 17:33N 47°59' W 122°13'0 0.2
2014-Oct-27 16:33N 47°59' W 122°13'2 1.7
2014-Oct-27 15:30N 47°59' W 122°16'3 2.8
2014-Oct-27 14:33N 48°01' W 122°18'2 2.3
2014-Oct-27 13:31N 48°02' W 122°22'2 1.7
2014-Oct-27 12:33N 48°03' W 122°23'2 1.6
2014-Oct-27 11:33N 48°05' W 122°25'11 2.2
2014-Oct-27 06:27N 48°14' W 122°34'3 2.9
2014-Oct-27 05:33N 48°16' W 122°32'3 2.9
2014-Oct-27 04:32N 48°19' W 122°31'2 2.1
2014-Oct-27 03:32N 48°21' W 122°33'1 1.1
2014-Oct-27 02:27N 48°22' W 122°33'1 0.3
2014-Oct-26 23:27N 48°22' W 122°31'2 1.1
2014-Oct-26 21:32N 48°24' W 122°30'0 0.0
2014-Oct-26 15:33N 48°24' W 122°30'0 0.0
2014-Oct-26 14:33N 48°24' W 122°30'0 0.0
2014-Oct-26 13:32N 48°24' W 122°30'0 0.0
2014-Oct-26 12:33N 48°24' W 122°30'0 0.0
2014-Oct-26 11:33N 48°24' W 122°30'0 0.0
2014-Oct-26 10:32N 48°24' W 122°30'0 0.0
2014-Oct-26 09:33N 48°24' W 122°30'0 0.0
2014-Oct-26 08:33N 48°24' W 122°30'0 0.0
2014-Oct-26 07:31N 48°24' W 122°30'0 0.0
2014-Oct-26 06:32N 48°24' W 122°30'0 0.0
2014-Oct-26 05:30N 48°24' W 122°30'0 0.0
2014-Oct-26 04:31N 48°24' W 122°30'0 0.0
2014-Oct-26 03:33N 48°24' W 122°30'0 0.0
2014-Oct-26 02:32N 48°24' W 122°30'0 0.0
2014-Oct-26 01:33N 48°24' W 122°30'0 0.0
2014-Oct-26 00:33N 48°24' W 122°30'0 0.0
2014-Oct-25 23:33N 48°24' W 122°30'0 0.0
2014-Oct-25 21:27N 48°24' W 122°30'0 0.0
2014-Oct-25 20:14N 48°24' W 122°30'0 0.0
2014-Oct-25 19:33N 48°24' W 122°30'0 0.0
2014-Oct-25 18:31N 48°24' W 122°30'0 0.0
2014-Oct-25 17:33N 48°24' W 122°30'0 0.0
2014-Oct-25 16:33N 48°24' W 122°30'0 0.0
2014-Oct-25 15:33N 48°24' W 122°30'0 0.0
2014-Oct-25 14:33N 48°24' W 122°30'0 0.0
2014-Oct-25 13:33N 48°24' W 122°30'19 8.0
2014-Oct-25 11:10N 48°05' W 122°26'711.3
2014-Oct-25 10:33N 48°01' W 122°18'4 3.9
2014-Oct-25 09:33N 47°59' W 122°13'0 0.0
2014-Oct-25 08:33N 47°59' W 122°13'0 0.0
2014-Oct-25 07:33N 47°59' W 122°13'0 0.0
2014-Oct-25 06:33N 47°59' W 122°13'0 0.0
2014-Oct-25 05:33N 47°59' W 122°13'0 0.0
2014-Oct-25 04:33N 47°59' W 122°13'0 0.1
2014-Oct-25 03:33N 47°59' W 122°13'1 1.1
2014-Oct-25 02:33N 47°58' W 122°15'1 1.3
2014-Oct-25 01:33N 47°59' W 122°16'3 2.7
2014-Oct-25 00:32N 48°01' W 122°18'2 2.0
2014-Oct-24 23:33N 48°02' W 122°21'1 1.5
2014-Oct-24 22:33N 48°03' W 122°23'1 1.4
2014-Oct-24 21:33N 48°04' W 122°24'2 1.8
2014-Oct-24 20:32N 48°05' W 122°26'5 1.6
2014-Oct-24 17:16N 48°09' W 122°32'6 1.8
2014-Oct-24 14:05N 48°14' W 122°33'1 1.6
2014-Oct-24 13:32N 48°15' W 122°33'1 1.4
2014-Oct-24 12:32N 48°16' W 122°31'1 1.0
2014-Oct-24 11:33N 48°17' W 122°30'1 0.8
2014-Oct-24 10:33N 48°18' W 122°30'1 0.9
2014-Oct-24 09:31N 48°19' W 122°30'2 1.7
2014-Oct-24 08:30N 48°20' W 122°32'3 2.9
2014-Oct-24 07:31N 48°22' W 122°34'3 2.7
2014-Oct-24 06:29N 48°25' W 122°36'2 1.7
2014-Oct-24 05:08N 48°24' W 122°39'1 0.8
2014-Oct-24 04:18N 48°25' W 122°40'1 0.6
2014-Oct-24 03:26N 48°25' W 122°41'2 1.7
2014-Oct-24 02:33N 48°26' W 122°42'3 2.9
2014-Oct-24 01:33N 48°29' W 122°43'2 1.8
2014-Oct-24 00:33N 48°30' W 122°45'1 1.2
2014-Oct-23 23:33N 48°31' W 122°46'1 1.3
2014-Oct-23 22:33N 48°32' W 122°48'1 0.8
2014-Oct-23 21:33N 48°32' W 122°49'1 0.7
2014-Oct-23 20:33N 48°32' W 122°50'0 0.3
2014-Oct-23 19:33N 48°32' W 122°50'0 0.4
2014-Oct-23 18:33N 48°32' W 122°50'1 1.0
2014-Oct-23 17:33N 48°33' W 122°51'1 1.4
2014-Oct-23 16:33N 48°34' W 122°52'1 1.2
2014-Oct-23 15:33N 48°35' W 122°53'1 1.5
2014-Oct-23 14:33N 48°35' W 122°56'2 1.6
2014-Oct-23 13:33N 48°36' W 122°58'1 1.0
2014-Oct-23 12:33N 48°36' W 122°59'1 0.9
2014-Oct-23 11:32N 48°36' W 123°01'1 0.6
2014-Oct-23 10:33N 48°36' W 123°00'0 0.0
2014-Oct-23 09:33N 48°36' W 123°00'0 0.0
2014-Oct-23 08:30N 48°36' W 123°00'0 0.0
2014-Oct-23 07:33N 48°36' W 123°00'0 0.0
2014-Oct-23 06:33N 48°36' W 123°00'0 0.0
2014-Oct-23 05:32N 48°36' W 123°00'0 0.0
2014-Oct-23 04:33N 48°36' W 123°00'0 0.0
2014-Oct-23 03:33N 48°36' W 123°00'0 0.0
2014-Oct-23 02:33N 48°36' W 123°00'0 0.0
2014-Oct-23 01:25N 48°36' W 123°00'0 0.0
2014-Oct-23 00:09N 48°36' W 123°00'0 0.0
2014-Oct-22 23:24N 48°36' W 123°00'0 0.0
2014-Oct-22 22:31N 48°36' W 123°00'0 0.0
2014-Oct-22 21:33N 48°36' W 123°00'0 0.0
2014-Oct-22 20:29N 48°36' W 123°00'0 0.0
2014-Oct-22 19:33N 48°36' W 123°00'0 0.0
2014-Oct-22 18:26N 48°36' W 123°00'0 0.0
2014-Oct-22 17:23N 48°36' W 123°00'0 0.0
2014-Oct-22 16:24N 48°36' W 123°00'0 0.0
2014-Oct-22 15:33N 48°36' W 123°00'0 0.0
2014-Oct-22 14:31N 48°36' W 123°00'0 0.0
2014-Oct-22 13:33N 48°36' W 123°00'0 0.0
2014-Oct-22 12:33N 48°36' W 123°00'0 0.0
2014-Oct-22 11:33N 48°36' W 123°00'0 0.0
2014-Oct-22 10:31N 48°36' W 123°00'0 0.0
2014-Oct-22 09:33N 48°36' W 123°00'0 0.0
2014-Oct-22 08:33N 48°36' W 123°00'0 0.0
2014-Oct-22 07:33N 48°36' W 123°00'0 0.0
2014-Oct-22 06:33N 48°36' W 123°00'0 0.0
2014-Oct-22 05:33N 48°36' W 123°00'0 0.0
2014-Oct-22 04:33N 48°36' W 123°00'0 0.0
2014-Oct-22 03:33N 48°36' W 123°00'0 0.0
2014-Oct-22 02:33N 48°36' W 123°00'0 0.0
2014-Oct-22 01:33N 48°36' W 123°00'0 0.0
2014-Oct-22 00:33N 48°36' W 123°00'0 0.0
2014-Oct-21 23:33N 48°36' W 123°00'0 0.0
2014-Oct-21 22:33N 48°36' W 123°00'0 0.0
2014-Oct-21 21:33N 48°36' W 123°00'0 0.0
2014-Oct-21 20:33N 48°36' W 123°00'0 0.0
2014-Oct-21 19:33N 48°36' W 123°00'0 0.0
2014-Oct-21 18:33N 48°36' W 123°00'0 0.0
2014-Oct-21 17:33N 48°36' W 123°00'0 0.0
2014-Oct-21 16:33N 48°36' W 123°00'0 0.0
2014-Oct-21 15:33N 48°36' W 123°00'0 0.0
2014-Oct-21 14:33N 48°36' W 123°00'0 0.0
2014-Oct-21 13:33N 48°36' W 123°00'0 0.0
2014-Oct-21 12:33N 48°36' W 123°00'0 0.0
2014-Oct-21 11:33N 48°36' W 123°00'0 0.0
2014-Oct-21 10:33N 48°36' W 123°00'0 0.0
2014-Oct-21 09:33N 48°36' W 123°00'0 0.0
2014-Oct-21 08:33N 48°36' W 123°00'  
Track history (hours):
 
Tides and Currents Weather Stations Pressure Air Temp Water Temp Dewpoint Dewpoint Depression Visibility Wind Speed Wind Dir Waves Ship Positions

Swinomish

Owner: DUNLAP TOWING CO, LA CONNER, WA. More information available from US FCC via Universal Licensing System and Coast Guard Vessel Documentation Center.

Last reported at 2014-Oct-31 08:34 UTC. Time now 2014-Oct-31 08:36 UTC.
Position N 47°17' W 122°25'.

Length 15 m; draft 3.5 m.

Type: Tug. MMSI: 366972050.

Date/timePositionNaut miles runAvg speedWind from/ knotsBaromVisibWave heightAir tempDewpointWater temp
2014-Oct-31 08:34N 47°17' W 122°25'0 0.3
2014-Oct-31 07:34N 47°17' W 122°25'0 0.0
2014-Oct-31 06:34N 47°17' W 122°25'0 0.0
2014-Oct-31 05:34N 47°17' W 122°25'0 0.0
2014-Oct-31 04:34N 47°17' W 122°25'0 0.0
2014-Oct-31 03:33N 47°17' W 122°25'0 0.0
2014-Oct-31 02:33N 47°17' W 122°25'0 0.2
2014-Oct-31 01:33N 47°17' W 122°25'0 0.4
2014-Oct-31 00:34N 47°17' W 122°26'2 1.5
2014-Oct-30 23:34N 47°19' W 122°27'2 1.6
2014-Oct-30 22:34N 47°20' W 122°25'1 1.4
2014-Oct-30 21:34N 47°21' W 122°23'2 1.6
2014-Oct-30 20:34N 47°22' W 122°22'2 1.5
2014-Oct-30 19:34N 47°24' W 122°22'2 1.8
2014-Oct-30 18:34N 47°25' W 122°24'2 1.8
2014-Oct-30 17:34N 47°26' W 122°25'2 1.7
2014-Oct-30 16:34N 47°28' W 122°26'2 1.7
2014-Oct-30 15:34N 47°30' W 122°27'2 1.6
2014-Oct-30 14:34N 47°31' W 122°27'2 2.0
2014-Oct-30 13:34N 47°33' W 122°28'2 2.2
2014-Oct-30 12:34N 47°35' W 122°28'2 1.9
2014-Oct-30 11:34N 47°37' W 122°29'1 1.4
2014-Oct-30 10:34N 47°39' W 122°29'1 1.0
2014-Oct-30 09:34N 47°40' W 122°29'1 0.8
2014-Oct-30 08:34N 47°40' W 122°29'1 1.4
2014-Oct-30 07:34N 47°40' W 122°27'1 0.9
2014-Oct-30 06:34N 47°41' W 122°26'1 1.4
2014-Oct-30 05:34N 47°42' W 122°25'2 1.5
2014-Oct-30 04:34N 47°44' W 122°24'2 1.6
2014-Oct-30 03:34N 47°45' W 122°24'1 1.4
2014-Oct-30 02:34N 47°47' W 122°25'1 1.2
2014-Oct-30 01:34N 47°48' W 122°24'1 1.2
2014-Oct-30 00:33N 47°49' W 122°24'1 1.3
2014-Oct-29 23:34N 47°50' W 122°23'1 1.4
2014-Oct-29 22:34N 47°51' W 122°22'1 1.4
2014-Oct-29 21:34N 47°52' W 122°21'2 1.7
2014-Oct-29 20:34N 47°54' W 122°21'2 1.6
2014-Oct-29 19:34N 47°56' W 122°20'1 1.5
2014-Oct-29 18:34N 47°57' W 122°19'1 0.9
2014-Oct-29 17:34N 47°58' W 122°18'1 1.2
2014-Oct-29 16:34N 47°58' W 122°17'0 0.4
2014-Oct-29 15:34N 47°58' W 122°17'0 0.3
2014-Oct-29 14:34N 47°58' W 122°18'0 0.3
2014-Oct-29 13:34N 47°58' W 122°17'0 0.4
2014-Oct-29 12:34N 47°58' W 122°17'1 0.6
2014-Oct-29 11:34N 47°58' W 122°16'0 0.5
2014-Oct-29 10:34N 47°58' W 122°15'0 0.3
2014-Oct-29 09:34N 47°58' W 122°15'1 1.2
2014-Oct-29 08:34N 47°58' W 122°17'1 0.5
2014-Oct-29 07:33N 47°58' W 122°16'2 1.6
2014-Oct-29 06:34N 47°59' W 122°14'1 0.7
2014-Oct-29 05:34N 47°59' W 122°13'0 0.2
2014-Oct-29 04:34N 47°59' W 122°13'0 0.0
2014-Oct-29 03:34N 47°59' W 122°13'0 0.0
2014-Oct-29 02:34N 47°59' W 122°13'0 0.0
2014-Oct-29 01:34N 47°59' W 122°13'1 1.4
2014-Oct-29 00:34N 47°59' W 122°15'8 7.9
2014-Oct-28 23:34N 47°53' W 122°23'8 7.8
2014-Oct-28 22:31N 47°56' W 122°34'7 1.6
2014-Oct-28 18:13N 48°02' W 122°39'6 8.5
2014-Oct-28 17:34N 47°57' W 122°36'7 7.2
2014-Oct-28 16:34N 47°53' W 122°27'6 6.3
2014-Oct-28 15:34N 47°56' W 122°20'5 5.4
2014-Oct-28 14:34N 47°60' W 122°14'1 0.8
2014-Oct-28 13:34N 47°59' W 122°13'0 0.0
2014-Oct-28 12:34N 47°59' W 122°13'0 0.0
2014-Oct-28 11:33N 47°59' W 122°13'0 0.0
2014-Oct-28 10:33N 47°59' W 122°13'0 0.0
2014-Oct-28 09:34N 47°59' W 122°13'0 0.0
2014-Oct-28 08:33N 47°59' W 122°13'0 0.0
2014-Oct-28 07:34N 47°59' W 122°13'0 0.0
2014-Oct-28 06:33N 47°59' W 122°13'0 0.0
2014-Oct-28 05:33N 47°59' W 122°13'0 0.0
2014-Oct-28 04:34N 47°59' W 122°13'0 0.0
2014-Oct-28 03:33N 47°59' W 122°13'0 0.0
2014-Oct-28 02:31N 47°59' W 122°13'0 0.0
2014-Oct-28 01:34N 47°59' W 122°13'0 0.0
2014-Oct-28 00:33N 47°59' W 122°13'0 0.0
2014-Oct-27 23:33N 47°59' W 122°13'0 0.0
2014-Oct-27 22:33N 47°59' W 122°13'0 0.0
2014-Oct-27 21:34N 47°59' W 122°13'0 0.0
2014-Oct-27 20:33N 47°59' W 122°13'0 0.0
2014-Oct-27 19:33N 47°59' W 122°13'0 0.2
2014-Oct-27 18:34N 47°59' W 122°13'0 0.1
2014-Oct-27 17:33N 47°59' W 122°13'0 0.2
2014-Oct-27 16:33N 47°59' W 122°13'2 1.7
2014-Oct-27 15:30N 47°59' W 122°16'3 2.8
2014-Oct-27 14:33N 48°01' W 122°18'2 2.3
2014-Oct-27 13:31N 48°02' W 122°22'2 1.7
2014-Oct-27 12:33N 48°03' W 122°23'2 1.6
2014-Oct-27 11:33N 48°05' W 122°25'11 2.2
2014-Oct-27 06:27N 48°14' W 122°34'3 2.9
2014-Oct-27 05:33N 48°16' W 122°32'3 2.9
2014-Oct-27 04:32N 48°19' W 122°31'2 2.1
2014-Oct-27 03:32N 48°21' W 122°33'1 1.1
2014-Oct-27 02:27N 48°22' W 122°33'1 0.3
2014-Oct-26 23:27N 48°22' W 122°31'2 1.1
2014-Oct-26 21:32N 48°24' W 122°30'0 0.0
2014-Oct-26 15:33N 48°24' W 122°30'0 0.0
2014-Oct-26 14:33N 48°24' W 122°30'0 0.0
2014-Oct-26 13:32N 48°24' W 122°30'0 0.0
2014-Oct-26 12:33N 48°24' W 122°30'0 0.0
2014-Oct-26 11:33N 48°24' W 122°30'0 0.0
2014-Oct-26 10:32N 48°24' W 122°30'0 0.0
2014-Oct-26 09:33N 48°24' W 122°30'0 0.0
2014-Oct-26 08:33N 48°24' W 122°30'0 0.0
2014-Oct-26 07:31N 48°24' W 122°30'0 0.0
2014-Oct-26 06:32N 48°24' W 122°30'0 0.0
2014-Oct-26 05:30N 48°24' W 122°30'0 0.0
2014-Oct-26 04:31N 48°24' W 122°30'0 0.0
2014-Oct-26 03:33N 48°24' W 122°30'0 0.0
2014-Oct-26 02:32N 48°24' W 122°30'0 0.0
2014-Oct-26 01:33N 48°24' W 122°30'0 0.0
2014-Oct-26 00:33N 48°24' W 122°30'0 0.0
2014-Oct-25 23:33N 48°24' W 122°30'0 0.0
2014-Oct-25 21:27N 48°24' W 122°30'0 0.0
2014-Oct-25 20:14N 48°24' W 122°30'0 0.0
2014-Oct-25 19:33N 48°24' W 122°30'0 0.0
2014-Oct-25 18:31N 48°24' W 122°30'0 0.0
2014-Oct-25 17:33N 48°24' W 122°30'0 0.0
2014-Oct-25 16:33N 48°24' W 122°30'0 0.0
2014-Oct-25 15:33N 48°24' W 122°30'0 0.0
2014-Oct-25 14:33N 48°24' W 122°30'0 0.0
2014-Oct-25 13:33N 48°24' W 122°30'19 8.0
2014-Oct-25 11:10N 48°05' W 122°26'711.3
2014-Oct-25 10:33N 48°01' W 122°18'4 3.9
2014-Oct-25 09:33N 47°59' W 122°13'0 0.0
2014-Oct-25 08:33N 47°59' W 122°13'0 0.0
2014-Oct-25 07:33N 47°59' W 122°13'0 0.0
2014-Oct-25 06:33N 47°59' W 122°13'0 0.0
2014-Oct-25 05:33N 47°59' W 122°13'0 0.0
2014-Oct-25 04:33N 47°59' W 122°13'0 0.1
2014-Oct-25 03:33N 47°59' W 122°13'1 1.1
2014-Oct-25 02:33N 47°58' W 122°15'1 1.3
2014-Oct-25 01:33N 47°59' W 122°16'3 2.7
2014-Oct-25 00:32N 48°01' W 122°18'2 2.0
2014-Oct-24 23:33N 48°02' W 122°21'1 1.5
2014-Oct-24 22:33N 48°03' W 122°23'1 1.4
2014-Oct-24 21:33N 48°04' W 122°24'2 1.8
2014-Oct-24 20:32N 48°05' W 122°26'5 1.6
2014-Oct-24 17:16N 48°09' W 122°32'6 1.8
2014-Oct-24 14:05N 48°14' W 122°33'1 1.6
2014-Oct-24 13:32N 48°15' W 122°33'1 1.4
2014-Oct-24 12:32N 48°16' W 122°31'1 1.0
2014-Oct-24 11:33N 48°17' W 122°30'1 0.8
2014-Oct-24 10:33N 48°18' W 122°30'1 0.9
2014-Oct-24 09:31N 48°19' W 122°30'2 1.7
2014-Oct-24 08:30N 48°20' W 122°32'3 2.9
2014-Oct-24 07:31N 48°22' W 122°34'3 2.7
2014-Oct-24 06:29N 48°25' W 122°36'2 1.7
2014-Oct-24 05:08N 48°24' W 122°39'1 0.8
2014-Oct-24 04:18N 48°25' W 122°40'1 0.6
2014-Oct-24 03:26N 48°25' W 122°41'2 1.7
2014-Oct-24 02:33N 48°26' W 122°42'3 2.9
2014-Oct-24 01:33N 48°29' W 122°43'2 1.8
2014-Oct-24 00:33N 48°30' W 122°45'1 1.2
2014-Oct-23 23:33N 48°31' W 122°46'1 1.3
2014-Oct-23 22:33N 48°32' W 122°48'1 0.8
2014-Oct-23 21:33N 48°32' W 122°49'1 0.7
2014-Oct-23 20:33N 48°32' W 122°50'0 0.3
2014-Oct-23 19:33N 48°32' W 122°50'0 0.4
2014-Oct-23 18:33N 48°32' W 122°50'1 1.0
2014-Oct-23 17:33N 48°33' W 122°51'1 1.4
2014-Oct-23 16:33N 48°34' W 122°52'1 1.2
2014-Oct-23 15:33N 48°35' W 122°53'1 1.5
2014-Oct-23 14:33N 48°35' W 122°56'2 1.6
2014-Oct-23 13:33N 48°36' W 122°58'1 1.0
2014-Oct-23 12:33N 48°36' W 122°59'1 0.9
2014-Oct-23 11:32N 48°36' W 123°01'1 0.6
2014-Oct-23 10:33N 48°36' W 123°00'0 0.0
2014-Oct-23 09:33N 48°36' W 123°00'0 0.0
2014-Oct-23 08:30N 48°36' W 123°00'0 0.0
2014-Oct-23 07:33N 48°36' W 123°00'0 0.0
2014-Oct-23 06:33N 48°36' W 123°00'0 0.0
2014-Oct-23 05:32N 48°36' W 123°00'0 0.0
2014-Oct-23 04:33N 48°36' W 123°00'0 0.0
2014-Oct-23 03:33N 48°36' W 123°00'0 0.0
2014-Oct-23 02:33N 48°36' W 123°00'0 0.0
2014-Oct-23 01:25N 48°36' W 123°00'0 0.0
2014-Oct-23 00:09N 48°36' W 123°00'0 0.0
2014-Oct-22 23:24N 48°36' W 123°00'0 0.0
2014-Oct-22 22:31N 48°36' W 123°00'0 0.0
2014-Oct-22 21:33N 48°36' W 123°00'0 0.0
2014-Oct-22 20:29N 48°36' W 123°00'0 0.0
2014-Oct-22 19:33N 48°36' W 123°00'0 0.0
2014-Oct-22 18:26N 48°36' W 123°00'0 0.0
2014-Oct-22 17:23N 48°36' W 123°00'0 0.0
2014-Oct-22 16:24N 48°36' W 123°00'0 0.0
2014-Oct-22 15:33N 48°36' W 123°00'0 0.0
2014-Oct-22 14:31N 48°36' W 123°00'0 0.0
2014-Oct-22 13:33N 48°36' W 123°00'0 0.0
2014-Oct-22 12:33N 48°36' W 123°00'0 0.0
2014-Oct-22 11:33N 48°36' W 123°00'0 0.0
2014-Oct-22 10:31N 48°36' W 123°00'0 0.0
2014-Oct-22 09:33N 48°36' W 123°00'0 0.0
2014-Oct-22 08:33N 48°36' W 123°00'0 0.0
2014-Oct-22 07:33N 48°36' W 123°00'0 0.0
2014-Oct-22 06:33N 48°36' W 123°00'0 0.0
2014-Oct-22 05:33N 48°36' W 123°00'0 0.0
2014-Oct-22 04:33N 48°36' W 123°00'0 0.0
2014-Oct-22 03:33N 48°36' W 123°00'0 0.0
2014-Oct-22 02:33N 48°36' W 123°00'0 0.0
2014-Oct-22 01:33N 48°36' W 123°00'0 0.0
2014-Oct-22 00:33N 48°36' W 123°00'0 0.0
2014-Oct-21 23:33N 48°36' W 123°00'0 0.0
2014-Oct-21 22:33N 48°36' W 123°00'0 0.0
2014-Oct-21 21:33N 48°36' W 123°00'0 0.0
2014-Oct-21 20:33N 48°36' W 123°00'0 0.0
2014-Oct-21 19:33N 48°36' W 123°00'0 0.0
2014-Oct-21 18:33N 48°36' W 123°00'0 0.0
2014-Oct-21 17:33N 48°36' W 123°00'0 0.0
2014-Oct-21 16:33N 48°36' W 123°00'0 0.0
2014-Oct-21 15:33N 48°36' W 123°00'0 0.0
2014-Oct-21 14:33N 48°36' W 123°00'0 0.0
2014-Oct-21 13:33N 48°36' W 123°00'0 0.0
2014-Oct-21 12:33N 48°36' W 123°00'0 0.0
2014-Oct-21 11:33N 48°36' W 123°00'0 0.0
2014-Oct-21 10:33N 48°36' W 123°00'0 0.0
2014-Oct-21 09:33N 48°36' W 123°00'0 0.0
2014-Oct-21 08:33N 48°36' W 123°00'  

Dump ship's entire track history